Weather History for Fayetteville, AR

Change the Weather History Date:

Saturday, March 2, 2013

  Actual Average Record
Temperature  
Mean Temperature 31 °F 44 °F  
Max Temperature 40 °F 56 °F 78 °F (1983)
Min Temperature 21 °F 32 °F 7 °F (1980)
Degree Days  
Heating Degree Days 34 21  
Month to date heating degree days 69 42  
Since 1 July heating degree days 3140 3345  
Cooling Degree Days 0 0  
Month to date cooling degree days 0 0  
Year to date cooling degree days 0 0  
Moisture  
Dew Point 20 °F    
Average Humidity 64    
Maximum Humidity 88    
Minimum Humidity 40    
Precipitation  
Precipitation T in 0.10 in 1.34 in (2014)
Month to date precipitation T 0.22  
Year to date precipitation 5.85 5.87  
Sea Level Pressure  
Sea Level Pressure 30.29 in    
Wind  
Wind Speed 7 mph (NW)    
Max Wind Speed 15 mph    
Max Gust Speed 20 mph    
Visibility 8 miles    
Events Snow    
T = Trace of Precipitation, MM = Missing Value Source: NWS Daily Summary

Daily Weather History Graph

Daily Weather History Graph

Search for Another Location

Airport:

Trip Planner

Search our weather history database for the weather conditions in past years. The results will help you decide how hot, cold, wet, or windy it might be!

Date:

Astronomy

Mar. 02, 2013 Rise Set
Actual Time 6:45 AM CST 6:12 PM CST
Civil Twilight 6:19 AM CST 6:38 PM CST
Nautical Twilight 5:49 AM CST 7:08 PM CST
Astronomical Twilight 5:20 AM CST 7:37 PM CST
Moon 11:41 PM CST (3/2) 9:24 AM CST (3/2)
Length of Visible Light 12h 19m
Length of Day
11h 27m
Waning Gibbous, 74% of the Moon is Illuminated
Mar 2
Waning Gibbous
Mar 4
Last Quarter
Mar 11
New
Mar 19
First Quarter
Mar 27
Full

Hourly Weather History & Observations

Time (CST) Temp. Windchill Dew Point Humidity Pressure Visibility Wind Dir Wind Speed Gust Speed Precip Events Conditions
12:21 AM 26.6 °F 17.5 °F 21.2 °F 80% 30.25 in 10.0 mi NNW 9.2 mph - 0.00 in   Overcast
12:53 AM 26.1 °F 17.6 °F 21.9 °F 84% 30.29 in 4.0 mi NNW 8.1 mph - 0.00 in Snow Light Snow
1:21 AM 26.6 °F 18.2 °F 21.2 °F 80% 30.26 in 2.5 mi NNW 8.1 mph - N/A Snow Light Snow
1:36 AM 26.6 °F 19.1 °F 21.2 °F 80% 30.26 in 3.0 mi NW 6.9 mph - 0.00 in Snow Light Snow
1:53 AM 26.1 °F 18.4 °F 21.9 °F 84% 30.29 in 4.0 mi NNW 6.9 mph - 0.00 in Snow Light Snow
2:53 AM 26.1 °F 16.8 °F 21.9 °F 84% 30.29 in 5.0 mi NNW 9.2 mph - 0.00 in Snow Light Snow
3:53 AM 26.1 °F 16.8 °F 21.9 °F 84% 30.27 in 7.0 mi NNW 9.2 mph - 0.00 in   Overcast
4:53 AM 26.6 °F 18.2 °F 21.2 °F 80% 30.25 in 8.0 mi NNW 8.1 mph - N/A   Overcast
5:53 AM 25.0 °F 17.1 °F 21.0 °F 85% 30.30 in 7.0 mi NNW 6.9 mph - N/A   Overcast
6:53 AM 25.0 °F 17.1 °F 21.0 °F 85% 30.32 in 7.0 mi NNW 6.9 mph - N/A   Overcast
7:53 AM 24.1 °F 16.0 °F 21.0 °F 88% 30.34 in 8.0 mi NNW 6.9 mph - N/A   Mostly Cloudy
8:53 AM 27.0 °F 18.7 °F 19.9 °F 75% 30.35 in 10.0 mi NNW 8.1 mph - N/A   Overcast
9:53 AM 28.0 °F 17.5 °F 19.9 °F 72% 30.35 in 10.0 mi NW 12.7 mph - N/A   Overcast
10:53 AM 32.0 °F 24.2 °F 19.9 °F 61% 30.34 in 10.0 mi NNW 9.2 mph 17.3 mph N/A   Mostly Cloudy
11:53 AM 33.1 °F 26.1 °F 19.0 °F 56% 30.33 in 10.0 mi NW 8.1 mph 17.3 mph N/A   Mostly Cloudy
12:53 PM 35.1 °F 28.6 °F 19.9 °F 54% 30.30 in 10.0 mi NW 8.1 mph 16.1 mph N/A   Partly Cloudy
1:53 PM 37.0 °F 29.3 °F 19.9 °F 50% 30.29 in 10.0 mi NNW 11.5 mph - N/A   Partly Cloudy
2:53 PM 39.9 °F 32.9 °F 21.0 °F 47% 30.28 in 10.0 mi NW 11.5 mph 17.3 mph N/A   Clear
3:53 PM 39.0 °F 32.3 °F 19.9 °F 46% 30.27 in 10.0 mi NNW 10.4 mph - N/A   Clear
4:53 PM 39.0 °F 32.8 °F 17.1 °F 41% 30.27 in 10.0 mi NNW 9.2 mph - N/A   Clear
5:53 PM 35.1 °F 29.3 °F 17.1 °F 48% 30.27 in 10.0 mi NW 6.9 mph - N/A   Clear
6:53 PM 30.2 °F 24.3 °F 17.6 °F 60% 30.25 in 10.0 mi WNW 5.8 mph - N/A   Clear
7:53 PM 28.9 °F - 18.0 °F 64% 30.28 in 10.0 mi Calm Calm - N/A   Clear
8:53 PM 23.0 °F 18.4 °F 18.0 °F 81% 30.28 in 10.0 mi SSW 3.5 mph - N/A   Clear
9:53 PM 25.0 °F - 19.0 °F 78% 30.27 in 10.0 mi Calm Calm - N/A   Clear
10:53 PM 21.9 °F - 18.0 °F 85% 30.27 in 10.0 mi Calm Calm - N/A   Clear
11:53 PM 21.9 °F - 18.0 °F 85% 30.25 in 10.0 mi Calm Calm - N/A   Clear